CZ-6A DEB

Satellite information

Favourite Embed

Satellite Type and Status

DEBRISIN ORBIT

Key statistics

Satellite CZ-6A DEB at a glance.

Uptime

390

Days in orbit

Revolutions

≈ 14.3

Per day

Orbit

LEO

Low Earth Orbit

Inclination

89.0

Latest

Satellite identification and parameters

Extended collection of information and parameters for CZ-6A DEB.

Object identification

Identified? True

Debris? True

Object name: CZ-6A DEB

International designator: 2024-140SZ

Object number (NORAD): 61288

Object ID (CCSDS): 61288

Country: PEOPLES REPUBLIC OF CHINA (PRC)

Current information (Y/N): Y

RCS size: SMALL

Orbital parameters

Period: 100.37 minutes

Inclination: 89.027 deg

SMA: 7154.216 km

Apoapsis: 779.271 km

Periapsis: 772.892 km

RAAN: 307.8766 deg

Eccentricy: 0.00044579

Argument of periapsis: 265.6336 deg

Mean anomaly: 94.4353 deg

Mean motion: 14.3469526 rev/day

Mean motion (dot): 0.0000457 rev/day2

B* drag term: 0.0016100901 1/REarth

Two-line elements (TLE)

Creation date: Aug. 30, 2025, 3:38 a.m.

Reference frame: TEME

Reference center: EARTH

Epoch: Aug. 29, 2025, 10:24 p.m. UTC

TLE line 0: 0 CZ-6A DEB

TLE line 1: 1 61288U 24140SZ 25241.93345027 .00004570 00000-0 16101-2 0 9990

TLE line 2: 2 61288 89.0270 307.8766 0004458 265.6336 94.4353 14.34695260 51837

Live tracking on map

Real-time ground track for satellite CZ-6A DEB.

In-orbit conjunctions

A list of the most updated potential collisions computed for object CZ-6A DEB.

Target Orbit TCA Probability of collision Miss distance Type
COSMOS 2251 DEB LEO 2025-08-23 23:06:13 0.0001311096 570.0 (m) DEBRIS
CZ-6A DEB SSO 2025-05-09 23:41:42 0.0008515943 10.0 (m) DEBRIS
COSMOS 1867 LEO 2025-04-14 14:14:09 0.0005021498 699.0 (m) PAYLOAD
NOAA 17 DEB SSO 2025-02-14 23:35:07 0.0002090591 113.0 (m) DEBRIS
EXPLORER 40 (INJUN-5) MEO 2025-02-09 13:49:48 0.0002703666 926.0 (m) PAYLOAD

Associated space launch

18 Low Earth Orbit communication satellites with Ku, Q and V band payloads for the G60 constellation operated by Shanghai Spacecom Satellite Technology (SSST) with funding backed by the Shanghai local government. Initial constellation will consist of 1296 satellites by 2027 with long term plans to expand it to 12000 satellites.

CZ-6A DEB was lifted into orbit during the mission ‘Long March 6A | G60 Polar Group 01’, on board a Long March 6A space rocket.

The launch took place on Aug. 6, 2024, 6:42 a.m. from Launch Complex 9A.

For more information about the launch, click the button.

Launch to space Long March 6A | G60 Polar Group 01
Long March 6A | G60 Polar Group 01

Agency: N/A

Status: Launch Successful

Launch date: Aug. 6, 2024, 6:42 a.m. UTC

Rocket: Long March 6A

Launch pad: Launch Complex 9A

Location: Taiyuan Satellite Launch Center, People's Republic of China

...

Latest news about this satellite

News about space launch
Brightness of first Chinese broadband constellation satellites alarms astronomers

The first satellites of a Chinese broadband constellation are significantly brighter than those of Western systems, posing a new challenge for astronomers.

News about space launch
Chinese rocket stage breaks up into cloud of more than 700 pieces of space debris

HELSINKI — A Chinese Long March 6A rocket’s upper stage has fragmented into a cloud of over 700 pieces of space debris, adding to concerns about long-term orbital safety. China […]

News about space launch
China's Thousand Sails Megaconstellation Kicks Off with Dangerous Debris Field

China's Thousand Sails Megaconstellation Kicks Off with Dangerous Debris Field


Newsletter sign-up

Weekly statistics, charts and insights to help you stay on top of the space industry.